Weather History for Gustavus, AK

Change the Weather History Date:

Friday, November 25, 2011

  Actual Average Record
Temperature  
Mean Temperature 25 °F -  
Max Temperature 35 °F 36 °F 48 °F (1954)
Min Temperature 15 °F 25 °F -1 °F (1955)
Degree Days  
Heating Degree Days 40    
Moisture  
Dew Point 23 °F    
Average Humidity 84    
Maximum Humidity 93    
Minimum Humidity 65    
Precipitation  
Precipitation 0.00 in - - ()
Sea Level Pressure  
Sea Level Pressure 29.57 in    
Wind  
Wind Speed 7 mph (North)    
Max Wind Speed 23 mph    
Max Gust Speed 33 mph    
Visibility 8 miles    
Events      
Averages and records for this station are not official NWS values.
T = Trace of Precipitation, MM = Missing Value Source: NWS Daily Summary

Daily Weather History Graph

Daily Weather History Graph

Search for Another Location

Airport:

Trip Planner

Search our weather history database for the weather conditions in past years. The results will help you decide how hot, cold, wet, or windy it might be!

Date:

Astronomy

Nov. 25, 2011 Rise Set
Actual Time 8:13 AM AKST 3:25 PM AKST
Civil Twilight 7:24 AM AKST 4:14 PM AKST
Nautical Twilight 6:34 AM AKST 5:05 PM AKST
Astronomical Twilight 5:46 AM AKST 5:52 PM AKST
Moon 9:07 AM AKST (11/25) 3:42 PM AKST (11/25)
Length of Visible Light 8h 49m
Length of Day
7h 11m
New Moon, 1% of the Moon is Illuminated
Nov 25
New Moon
Dec 2
First Quarter
Dec 10
Full
Dec 17
Last Quarter
Dec 24
New

Hourly Weather History & Observations

Time (AKST) Temp. Windchill Dew Point Humidity Pressure Visibility Wind Dir Wind Speed Gust Speed Precip Events Conditions
12:16 AM 15.8 °F 8.6 °F 12.2 °F 86% 29.44 in 10.0 mi NNW 4.6 mph - N/A   Overcast
12:36 AM 15.8 °F - 12.2 °F 86% 29.45 in 10.0 mi Calm Calm - N/A   Overcast
12:56 AM 17.6 °F 9.3 °F 15.8 °F 93% 29.46 in 10.0 mi North 5.8 mph - N/A   Overcast
1:16 AM 19.4 °F 12.8 °F 15.8 °F 86% 29.46 in 10.0 mi NNW 4.6 mph - N/A   Overcast
1:36 AM 17.6 °F - 14.0 °F 86% 29.48 in 10.0 mi Calm Calm - N/A   Overcast
1:56 AM 19.4 °F 12.8 °F 15.8 °F 86% 29.48 in 10.0 mi North 4.6 mph - N/A   Overcast
2:16 AM 19.4 °F 12.8 °F 17.6 °F 93% 29.49 in 10.0 mi NNW 4.6 mph - N/A   Overcast
2:36 AM 21.2 °F 14.9 °F 17.6 °F 86% 29.50 in 10.0 mi North 4.6 mph - N/A   Overcast
2:56 AM 21.2 °F - 19.4 °F 93% 29.51 in 10.0 mi Calm Calm - N/A   Overcast
3:16 AM 21.2 °F 16.4 °F 19.4 °F 93% 29.51 in 10.0 mi North 3.5 mph - N/A   Overcast
3:36 AM 21.2 °F 14.9 °F 19.4 °F 93% 29.51 in 10.0 mi NNW 4.6 mph - N/A   Overcast
3:56 AM 24.8 °F 19.1 °F 21.2 °F 86% 29.52 in 10.0 mi NW 4.6 mph - N/A   Overcast
4:16 AM 23.0 °F 17.0 °F 19.4 °F 86% 29.52 in 10.0 mi North 4.6 mph - N/A   Overcast
4:36 AM 23.0 °F 15.8 °F 19.4 °F 86% 29.52 in 10.0 mi NNW 5.8 mph - N/A   Overcast
4:56 AM 23.0 °F 15.8 °F 19.4 °F 86% 29.52 in 10.0 mi NNW 5.8 mph - N/A   Overcast
5:16 AM 21.2 °F 11.7 °F 19.4 °F 93% 29.52 in 10.0 mi NNW 8.1 mph - N/A   Overcast
5:36 AM 24.8 °F 16.1 °F 21.2 °F 86% 29.51 in 10.0 mi NNW 8.1 mph - N/A   Mostly Cloudy
5:56 AM 24.8 °F 15.3 °F 21.2 °F 86% 29.51 in 10.0 mi NW 9.2 mph - N/A   Overcast
6:16 AM 24.8 °F 16.1 °F 21.2 °F 86% 29.52 in 10.0 mi NW 8.1 mph - N/A   Overcast
6:36 AM 24.8 °F 15.3 °F 21.2 °F 86% 29.51 in 10.0 mi NNW 9.2 mph - N/A   Overcast
6:56 AM 26.6 °F 16.8 °F 23.0 °F 86% 29.52 in 10.0 mi NNW 10.4 mph - N/A   Overcast
7:16 AM 26.6 °F 17.5 °F 23.0 °F 86% 29.53 in 8.0 mi NNW 9.2 mph - N/A   Overcast
7:36 AM 26.6 °F 17.5 °F 23.0 °F 86% 29.53 in 3.0 mi NNW 9.2 mph - N/A   Overcast
7:56 AM 26.6 °F 17.5 °F 23.0 °F 86% 29.54 in 5.0 mi NW 9.2 mph - N/A   Overcast
8:16 AM 26.6 °F 18.2 °F 24.8 °F 93% 29.55 in 1.0 mi NW 8.1 mph - N/A   Overcast
8:36 AM 26.6 °F 17.5 °F 24.8 °F 93% 29.56 in 1.2 mi NNW 9.2 mph - N/A   Overcast
8:56 AM 26.6 °F 17.5 °F 24.8 °F 93% 29.58 in 1.5 mi NNW 9.2 mph - N/A   Overcast
9:16 AM 26.6 °F 21.2 °F 24.8 °F 93% 29.59 in 0.8 mi NNW 4.6 mph - N/A   Overcast
9:36 AM 26.6 °F 20.0 °F 24.8 °F 93% 29.60 in 3.0 mi NW 5.8 mph - N/A   Overcast
9:56 AM 26.6 °F 21.2 °F 24.8 °F 93% 29.61 in 10.0 mi North 4.6 mph - N/A   Overcast
10:16 AM 28.4 °F - 24.8 °F 86% 29.62 in 0.8 mi Calm Calm - N/A   Overcast
10:36 AM 28.4 °F 21.2 °F 24.8 °F 86% 29.63 in 5.0 mi NNW 6.9 mph - N/A   Overcast
10:56 AM 28.4 °F - 24.8 °F 86% 29.65 in 4.0 mi Calm Calm - N/A   Overcast
11:16 AM 28.4 °F 22.2 °F 24.8 °F 86% 29.65 in 10.0 mi NNW 5.8 mph - N/A   Overcast
11:36 AM 28.4 °F - 24.8 °F 86% 29.66 in 10.0 mi Calm Calm - N/A   Mostly Cloudy
11:56 AM 28.4 °F 21.2 °F 26.6 °F 93% 29.65 in 10.0 mi NNW 6.9 mph - N/A   Scattered Clouds
12:16 PM 28.4 °F 20.4 °F 26.6 °F 93% 29.65 in 10.0 mi SE 8.1 mph - N/A   Mostly Cloudy
12:36 PM 35.6 °F 27.5 °F 26.6 °F 70% 29.64 in 10.0 mi ESE 11.5 mph - N/A   Mostly Cloudy
12:56 PM 35.6 °F 28.6 °F 24.8 °F 65% 29.64 in 10.0 mi SE 9.2 mph - N/A   Overcast
1:16 PM 35.6 °F 27.1 °F 24.8 °F 65% 29.64 in 9.0 mi SE 12.7 mph 19.6 mph N/A   Overcast
1:36 PM 35.6 °F 24.5 °F 26.6 °F 70% 29.64 in 9.0 mi SE 20.7 mph 32.2 mph N/A   Overcast
1:56 PM 35.6 °F 25.2 °F 26.6 °F 70% 29.63 in 9.0 mi SE 18.4 mph 28.8 mph N/A   Overcast
2:16 PM 35.6 °F 24.8 °F 26.6 °F 70% 29.63 in 2.5 mi SE 19.6 mph 33.4 mph N/A   Overcast
2:36 PM 33.8 °F 23.5 °F 28.4 °F 81% 29.62 in 0.8 mi SE 16.1 mph 23.0 mph N/A   Overcast
2:56 PM 35.6 °F 25.5 °F 26.6 °F 70% 29.61 in 10.0 mi SSE 17.3 mph 27.6 mph N/A   Overcast
3:16 PM 33.8 °F 21.6 °F 28.4 °F 81% 29.62 in 1.5 mi SSE 23.0 mph 33.4 mph N/A   Overcast
3:36 PM 35.6 °F 24.8 °F 28.4 °F 75% 29.62 in 10.0 mi SSE 19.6 mph 29.9 mph N/A   Mostly Cloudy
3:56 PM 35.6 °F 24.8 °F 28.4 °F 75% 29.63 in 10.0 mi SE 19.6 mph 26.5 mph N/A   Mostly Cloudy
4:16 PM 35.6 °F 24.5 °F 30.2 °F 81% 29.63 in 10.0 mi SE 20.7 mph 26.5 mph N/A   Overcast
4:36 PM 35.6 °F 26.2 °F 28.4 °F 75% 29.64 in 9.0 mi SE 15.0 mph - N/A   Overcast
4:56 PM 33.8 °F 23.5 °F 30.2 °F 87% 29.63 in 9.0 mi SE 16.1 mph 19.6 mph N/A   Overcast
5:16 PM 33.8 °F 23.5 °F 30.2 °F 87% 29.63 in 10.0 mi ESE 16.1 mph 20.7 mph N/A   Mostly Cloudy
5:36 PM 35.6 °F 27.5 °F 30.2 °F 81% 29.62 in 10.0 mi ESE 11.5 mph 18.4 mph N/A   Overcast
5:56 PM 35.6 °F 27.1 °F 30.2 °F 81% 29.61 in 10.0 mi SE 12.7 mph - N/A   Mostly Cloudy
6:16 PM 35.6 °F 26.2 °F 30.2 °F 81% 29.61 in 10.0 mi ESE 15.0 mph 19.6 mph N/A   Overcast
6:36 PM 35.6 °F 26.6 °F 30.2 °F 81% 29.61 in 8.0 mi SE 13.8 mph - N/A   Overcast
6:56 PM 33.8 °F 23.2 °F 30.2 °F 87% 29.60 in 7.0 mi SE 17.3 mph - N/A   Overcast
7:16 PM 33.8 °F 24.8 °F 30.2 °F 87% 29.59 in 5.0 mi SE 12.7 mph - N/A   Overcast
7:36 PM 33.8 °F 23.9 °F 30.2 °F 87% 29.58 in 4.0 mi SE 15.0 mph - N/A   Overcast
7:56 PM 33.8 °F 25.8 °F 30.2 °F 87% 29.57 in 4.0 mi SE 10.4 mph - N/A   Overcast
8:16 PM 33.8 °F 25.8 °F 30.2 °F 87% 29.56 in 8.0 mi SE 10.4 mph - N/A   Overcast
8:36 PM 35.6 °F 28.0 °F 30.2 °F 81% 29.55 in 10.0 mi SE 10.4 mph - N/A   Overcast
8:56 PM 35.6 °F 26.2 °F 30.2 °F 81% 29.54 in 10.0 mi SSE 15.0 mph 19.6 mph N/A   Overcast
9:16 PM 37.4 °F 30.8 °F 30.2 °F 75% 29.53 in 10.0 mi SE 9.2 mph 16.1 mph N/A   Overcast
9:36 PM 37.4 °F 30.3 °F 30.2 °F 75% 29.52 in 10.0 mi SE 10.4 mph - N/A   Overcast
9:56 PM 37.4 °F 30.8 °F 30.2 °F 75% 29.51 in 10.0 mi SE 9.2 mph - N/A   Overcast
10:16 PM 37.4 °F 29.8 °F 30.2 °F 75% 29.50 in 10.0 mi SE 11.5 mph - N/A   Overcast
10:36 PM 37.4 °F 29.8 °F 28.4 °F 70% 29.49 in 10.0 mi SE 11.5 mph - N/A   Overcast
10:56 PM 37.4 °F 29.8 °F 28.4 °F 70% 29.49 in 10.0 mi SSE 11.5 mph - N/A   Overcast
11:16 PM 37.4 °F 32.8 °F 28.4 °F 70% 29.48 in 10.0 mi East 5.8 mph - N/A   Overcast
11:36 PM 35.6 °F 31.7 °F 28.4 °F 75% 29.47 in 10.0 mi ENE 4.6 mph - N/A   Overcast
11:56 PM 35.6 °F 32.8 °F 28.4 °F 75% 29.47 in 10.0 mi NNE 3.5 mph - N/A   Overcast